{"data":{"norad_id":51725,"intl_designator":"2022-016M","name":"STARLINK-3522","alt_names":[],"object_type":"PAYLOAD","status":"ACTIVE","operator":null,"country":"US","launch_date":"2022-02-21","launch_site_code":"AFETR","launch_vehicle":null,"mission":null,"orbit_class":"UNKNOWN","rcs_meters":null,"size_class":null,"mass_kg":null,"dimensions":null,"purposes":["comms"],"wikipedia_slug":null,"has_3d_model":false,"image_url":null,"decayed_at":null,"tle_current":{"epoch":"2026-05-24T19:51:17.611488Z","epoch_age_seconds":93979,"freshness":"FRESH","line1":"1 51725U 22016M   26144.82728717  .00000337  00000+0  39254-4 0  9999","line2":"2 51725  53.2147 347.3256 0001042  88.3824 271.7287 15.08837806234913","mean_motion":15.08837806,"eccentricity":0.0001042,"inclination_deg":53.2147,"raan_deg":347.3256,"arg_perigee_deg":88.3824,"mean_anomaly_deg":271.7287,"bstar":3.9254e-5,"rev_number":23491,"period_min":95.437693453447,"perigee_km":539.02925131719,"apogee_km":540.47093898782,"semimajor_km":6917.8870951525,"source":"CELESTRAK","updated_at":"2026-05-25T13:38:16.921996Z"}}}